Time,TemperatureF,DewpointF,PressureIn,WindDirection,WindDirectionDegrees,WindSpeedMPH,WindSpeedGustMPH,Humidity,HourlyPrecipIn,Conditions,Clouds,dailyrainin,SoftwareType,DateUTC
2013-07-18 00:27:00,62.3,54.7,29.96,SW,233,2.0,4.0,76,0.00,,---,0.00,VWS V14.01,2013-07-18 08:27:00,
2013-07-18 00:57:00,61.6,55.0,29.97,SW,224,3.0,4.0,79,0.00,,---,0.00,VWS V14.01,2013-07-18 08:57:00,
2013-07-18 01:27:00,61.3,54.4,29.98,SW,221,1.0,5.0,78,0.00,,---,0.00,VWS V14.01,2013-07-18 09:27:00,
2013-07-18 01:57:00,60.7,54.2,29.98,SW,219,1.0,4.0,79,0.00,,---,0.00,VWS V14.01,2013-07-18 09:57:00,
2013-07-18 02:27:00,60.8,53.9,30.00,SW,224,0.0,4.0,78,0.00,,---,0.00,VWS V14.01,2013-07-18 10:27:00,
2013-07-18 02:57:00,59.8,53.3,30.00,SW,222,3.0,4.0,79,0.00,,---,0.00,VWS V14.01,2013-07-18 10:57:00,
2013-07-18 03:27:00,58.7,52.9,30.01,SW,225,0.0,5.0,81,0.00,,---,0.00,VWS V14.01,2013-07-18 11:27:00,
2013-07-18 03:57:00,58.8,52.7,30.02,SSW,211,1.0,4.0,80,0.00,,---,0.00,VWS V14.01,2013-07-18 11:57:00,
2013-07-18 04:27:00,57.8,52.7,30.03,SW,218,2.0,2.0,83,0.00,,---,0.00,VWS V14.01,2013-07-18 12:27:00,
2013-07-18 04:57:00,57.1,52.6,30.04,SW,228,1.0,2.0,85,0.00,,---,0.00,VWS V14.01,2013-07-18 12:57:00,
2013-07-18 05:57:00,57.6,53.1,30.06,SW,214,1.0,3.0,85,0.00,,---,0.00,VWS V14.01,2013-07-18 13:57:00,
2013-07-18 06:27:00,57.9,53.1,30.08,SSW,207,1.0,1.0,84,0.00,,---,0.00,VWS V14.01,2013-07-18 14:27:00,
2013-07-18 06:57:00,59.6,53.4,30.09,ESE,123,0.0,2.0,80,0.00,,---,0.00,VWS V14.01,2013-07-18 14:57:00,
2013-07-18 07:27:00,60.8,53.9,30.10,SSW,203,1.0,3.0,78,0.00,,---,0.00,VWS V14.01,2013-07-18 15:27:00,
2013-07-18 07:57:00,63.3,54.5,30.10,SW,217,1.0,6.0,73,0.00,,---,0.00,VWS V14.01,2013-07-18 15:57:00,
2013-07-18 08:27:00,64.1,54.9,30.11,SE,143,1.0,6.0,72,0.00,,---,0.00,VWS V14.01,2013-07-18 16:27:00,
2013-07-18 08:57:00,63.2,54.8,30.12,SSW,206,3.0,6.0,74,0.00,,---,0.00,VWS V14.01,2013-07-18 16:57:00,
2013-07-18 09:27:00,62.1,55.2,30.13,East,90,4.0,7.0,78,0.00,,---,0.00,VWS V14.01,2013-07-18 17:27:00,
2013-07-18 09:57:00,62.3,54.7,30.14,West,263,3.0,8.0,76,0.00,,---,0.00,VWS V14.01,2013-07-18 17:57:00,
2013-07-18 10:27:00,62.3,55.4,30.14,ENE,69,2.0,9.0,78,0.00,,---,0.00,VWS V14.01,2013-07-18 18:27:00,
2013-07-18 11:57:00,63.3,55.2,30.15,ESE,103,4.0,10.0,75,0.00,,---,0.00,VWS V14.01,2013-07-18 19:57:00,
2013-07-18 12:57:00,63.0,55.0,30.16,SSW,208,4.0,10.0,75,0.00,,---,0.00,VWS V14.01,2013-07-18 20:57:00,
2013-07-18 13:27:00,63.6,55.5,30.16,SW,226,2.0,9.0,75,0.00,,---,0.00,VWS V14.01,2013-07-18 21:27:00,
2013-07-18 13:57:00,64.9,56.0,30.16,SSE,160,5.0,9.0,73,0.00,,---,0.00,VWS V14.01,2013-07-18 21:57:00,
2013-07-18 14:27:00,64.6,56.1,30.16,SSW,198,3.0,11.0,74,0.00,,---,0.00,VWS V14.01,2013-07-18 22:27:00,
2013-07-18 14:57:00,64.8,56.3,30.16,SSE,167,3.0,11.0,74,0.00,,---,0.00,VWS V14.01,2013-07-18 22:57:00,
2013-07-18 15:27:00,65.2,56.0,30.16,West,264,1.0,9.0,72,0.00,,---,0.00,VWS V14.01,2013-07-18 23:27:00,
2013-07-18 15:57:00,62.6,55.3,30.16,ESE,115,3.0,14.0,77,0.00,,---,0.00,VWS V14.01,2013-07-18 23:57:00,
2013-07-18 16:27:00,62.8,55.5,30.16,NE,38,0.0,12.0,77,0.00,,---,0.00,VWS V14.01,2013-07-19 00:27:00,
2013-07-18 16:57:00,62.1,55.2,30.16,SSE,165,0.0,8.0,78,0.00,,---,0.00,VWS V14.01,2013-07-19 00:57:00,
2013-07-18 17:27:00,62.6,55.3,30.16,South,171,2.0,12.0,77,0.00,,---,0.00,VWS V14.01,2013-07-19 01:27:00,
2013-07-18 17:57:00,62.2,55.3,30.16,South,169,6.0,11.0,78,0.00,,---,0.00,VWS V14.01,2013-07-19 01:57:00,
2013-07-18 18:27:00,61.2,55.3,30.16,WSW,242,3.0,13.0,81,0.00,,---,0.00,VWS V14.01,2013-07-19 02:27:00,
2013-07-18 18:57:00,61.0,54.8,30.17,SW,233,3.0,12.0,80,0.00,,---,0.00,VWS V14.01,2013-07-19 02:57:00,
2013-07-18 19:27:00,60.7,54.8,30.17,WSW,242,1.0,11.0,81,0.00,,---,0.00,VWS V14.01,2013-07-19 03:27:00,
2013-07-18 19:57:00,60.5,55.3,30.17,SW,235,3.0,8.0,83,0.00,,---,0.00,VWS V14.01,2013-07-19 03:57:00,
2013-07-18 20:27:00,60.2,55.0,30.17,South,174,2.0,10.0,83,0.00,,---,0.00,VWS V14.01,2013-07-19 04:27:00,
2013-07-18 20:57:00,59.8,55.0,30.17,ESE,123,0.0,9.0,84,0.00,,---,0.00,VWS V14.01,2013-07-19 04:57:00,
2013-07-18 21:27:00,59.6,54.8,30.18,WSW,257,3.0,8.0,84,0.00,,---,0.00,VWS V14.01,2013-07-19 05:27:00,
2013-07-18 21:57:00,59.5,55.0,30.18,WSW,253,3.0,9.0,85,0.00,,---,0.00,VWS V14.01,2013-07-19 05:57:00,
2013-07-18 22:27:00,59.3,54.8,30.18,SSE,152,2.0,8.0,85,0.00,,---,0.00,VWS V14.01,2013-07-19 06:27:00,
2013-07-18 22:57:00,58.9,54.7,30.19,SW,224,1.0,7.0,86,0.00,,---,0.00,VWS V14.01,2013-07-19 06:57:00,
2013-07-18 23:27:00,58.7,54.5,30.19,WSW,239,0.0,3.0,86,0.00,,---,0.00,VWS V14.01,2013-07-19 07:27:00,
2013-07-18 23:57:00,58.6,54.4,30.19,SW,233,1.0,2.0,86,0.00,,---,0.00,VWS V14.01,2013-07-19 07:57:00,